STARLINK-34968 (65276 NORAD) Tracking and Keplerian Element Data

This shows tracking and keplerian element data for the satellite.

Feedback or suggestion? Click here.




ElementValue
Catalog65276
NameSTARLINK-34968
Epoch Orbit1932
Epoch Day354.09190719
Epoch Year2025
RAAN44.1962
Inclination97.6045
Eccentricity7.36E-05
Argument of Perigee97.2278
Mean Anonmoly262.9032
Mean Motion15.05654729
Decay Rate3.226E-05
L11 65276U 25184D 25354.09190719 .00003226 00000+0 22764-3 0 9997
L22 65276 97.6045 44.1962 0000736 97.2278 262.9032 15.05654729 19329



Live tracking and technical data element details for STARLINK-34968 (NORAD 65276). STARLINK-34968 can be tracked NOW for your location showing map with azimuth and elevation plus other details from your city location.







IsCatalogInMostPopularTable: catalog: 65276, numindb: 3
Update: records affected: 1



GetName: 65276 STARLINK-34968

Hit Count: updated at: Sat, 07 Feb 2026 07:02:20 GMT